User: anonymous   Login
Location: Kelshall
(52.0000°N, 0.0500°W)
Time: 02:53:43
(UTC+00:00)
Language:

Cosmos 1975 - Orbit

View from above orbital plane
View from above orbital plane
View from above satellite
View from above satellite

Ground track
Ground track

The orbit data is extracted from the following two-line orbital elements,

1 19573U 88093A   21127.87923281  .00000120  00000-0  63693-5 0  9991
2 19573  82.5226  49.8843 0015241 133.1220 227.1285 15.05154223773443
Epoch (UTC): 07 May 2021 21:06:05
Eccentricity: 0.0015241
inclination: 82.5226°
perigee height: 540 km
apogee height: 561 km
right ascension of ascending node: 49.8843°
argument of perigee: 133.1220°
revolutions per day: 15.05154223
mean anomaly at epoch: 227.1285°
orbit number at epoch: 77344

The dashed part of the orbit path shows where the satellite is in the earth's shadow,  

DLR